Corpus Christi NAS, TX

3:48 AM CST on November 23, 2017 (GMT -0600)
Corpus Christi Naval Air Station-Truax

Weather History for KNGP - December, 2012

Change the Weather History Date:

Sunday, December 30, 2012

  Actual Average Record
Temperature  
Mean Temperature 56 °F -  
Max Temperature 66 °F 64 °F 78 °F (2005)
Min Temperature 46 °F 47 °F 35 °F (2003)
Degree Days  
Heating Degree Days 9    
Growing Degree Days 6 (Base 50)    
Moisture  
Dew Point 46 °F    
Average Humidity 68    
Maximum Humidity 87    
Minimum Humidity 46    
Precipitation  
Precipitation 0.00 in - - ()
Sea Level Pressure  
Sea Level Pressure 30.29 in    
Wind  
Wind Speed 15 mph (ENE)    
Max Wind Speed 21 mph    
Max Gust Speed 25 mph    
Visibility 10 miles    
Events Rain    
Averages and records for this station are not official NWS values.
T = Trace of Precipitation, MM = Missing Value Source: NWS Daily Summary

Daily Weather History Graph

Daily Weather History Graph

Search for Another Location

Airport or City:

Trip Planner

Search our weather history database for the weather conditions in past years. The results will help you decide how hot, cold, wet, or windy it might be!

Date:

Astronomy

Dec. 30, 2012 Rise Set
Actual Time 7:19 AM CST 5:44 PM CST
Civil Twilight 6:53 AM CST 6:10 PM CST
Nautical Twilight 6:24 AM CST 6:39 PM CST
Astronomical Twilight 5:56 AM CST 7:07 PM CST
Moon 8:03 PM CST (12/30) 8:40 AM CST (12/30)
Length of Visible Light 11h 16m
Length of Day
10h 25m
Waning Gibbous, 95% of the Moon is Illuminated
Dec 30
Waning Gibbous
Jan 4
Last Quarter
Jan 11
New
Jan 18
First Quarter
Jan 26
Full

Hourly Weather History & Observations

Time (CST) Temp. Dew Point Humidity Pressure Visibility Wind Dir Wind Speed Gust Speed Precip Events Conditions
12:56 AM 48.0 °F 28.0 °F 46% 30.42 in 10.0 mi NNE 10.4 mph - N/A   Clear
1:56 AM 48.0 °F 30.0 °F 50% 30.40 in 10.0 mi NNE 12.7 mph - N/A   Clear
2:56 AM 48.0 °F 30.9 °F 52% 30.41 in 10.0 mi NNE 15.0 mph - N/A   Clear
3:56 AM 48.0 °F 32.0 °F 54% 30.40 in 10.0 mi NNE 16.1 mph - N/A   Clear
4:56 AM 48.0 °F 35.1 °F 61% 30.38 in 10.0 mi NNE 16.1 mph - N/A   Clear
5:56 AM 46.9 °F 34.0 °F 61% 30.39 in 10.0 mi NNE 18.4 mph - N/A   Clear
6:56 AM 46.9 °F 35.1 °F 63% 30.38 in 10.0 mi NE 19.6 mph - N/A   Clear
7:56 AM 48.9 °F 37.9 °F 66% 30.39 in 10.0 mi NE 20.7 mph - N/A   Clear
8:56 AM 51.1 °F 41.0 °F 68% 30.39 in 10.0 mi NE 19.6 mph - N/A   Clear
9:56 AM 52.0 °F 43.0 °F 71% 30.40 in 10.0 mi NE 19.6 mph - N/A   Clear
10:56 AM 54.0 °F 44.1 °F 69% 30.38 in 10.0 mi NE 19.6 mph - N/A   Clear
11:56 AM 55.0 °F 44.1 °F 67% 30.35 in 10.0 mi NE 19.6 mph - N/A   Mostly Cloudy
12:56 PM 55.0 °F 46.0 °F 72% 30.31 in 10.0 mi NE 18.4 mph - N/A   Partly Cloudy
1:56 PM 59.0 °F 48.9 °F 69% 30.28 in 10.0 mi NE 15.0 mph - N/A   Overcast
2:56 PM 59.0 °F 51.1 °F 75% 30.25 in 10.0 mi NE 11.5 mph - N/A   Overcast
3:00 PM 59.0 °F 51.8 °F 77% 30.25 in 10.0 mi NE 10.4 mph - N/A   Mostly Cloudy
3:56 PM 64.0 °F 52.0 °F 65% 30.22 in 10.0 mi East 11.5 mph - N/A   Mostly Cloudy
4:56 PM 63.0 °F 53.1 °F 70% 30.20 in 10.0 mi ESE 12.7 mph - N/A   Overcast
5:56 PM 63.0 °F 53.1 °F 70% 30.19 in 10.0 mi ESE 12.7 mph - N/A   Overcast
6:56 PM 64.0 °F 54.0 °F 70% 30.19 in 10.0 mi ESE 11.5 mph - N/A   Overcast
7:56 PM 64.0 °F 55.0 °F 73% 30.19 in 10.0 mi SE 12.7 mph - N/A   Overcast
8:56 PM 64.9 °F 55.9 °F 73% 30.17 in 10.0 mi SE 13.8 mph - N/A   Overcast
9:05 PM 64.4 °F 55.4 °F 73% 30.17 in 10.0 mi ESE 17.3 mph 25.3 mph 0.00 in Rain Light Rain
9:18 PM 64.4 °F 57.2 °F 77% 30.17 in 10.0 mi SE 11.5 mph - 0.00 in   Overcast
9:56 PM 66.0 °F 57.0 °F 73% 30.18 in 10.0 mi SE 15.0 mph - 0.00 in   Overcast
10:56 PM 64.0 °F 60.1 °F 87% 30.16 in 10.0 mi SE 13.8 mph - 0.00 in   Overcast
11:56 PM 64.9 °F 61.0 °F 87% 30.15 in 10.0 mi SSE 13.8 mph - 0.00 in   Overcast